WD4IXD Weather Reports


Display with metric or nautical units.
time (UTC)temp
F
wind
direction
speed
MPH
gust
MPH
rain 1hr
in
rain 24hr
in
rain mn
in
humidity
%
barometer
mb
20230203075004 24 152 7.0 12.0 0.00 0.00 0.00 68 1026.1
20230203074504 25 149 8.0 12.0 0.00 0.00 0.00 68 1026.1
20230203074004 25 140 8.0 13.0 0.00 0.00 0.00 68 1026.1
20230203073503 24 142 7.0 12.0 0.00 0.00 0.00 68 1026.2
20230203073004 25 155 8.0 12.0 0.00 0.00 0.00 67 1026.2
20230203072504 26 123 10.0 13.0 0.00 0.00 0.00 65 1026.2
20230203072004 27 157 6.0 9.0 0.00 0.00 0.00 63 1026.3
20230203071504 28 129 6.0 12.0 0.00 0.00 0.00 62 1026.2
20230203071004 27 124 6.0 12.0 0.00 0.00 0.00 64 1026.3
20230203070503 28 119 9.0 18.0 0.00 0.00 0.00 62 1026.4
20230203070004 28 153 9.0 14.0 0.00 0.00 0.00 65 1026.5
20230203065504 27 157 10.0 16.0 0.00 0.00 0.00 65 1026.5
20230203065004 27 148 10.0 17.0 0.00 0.00 0.00 64 1026.6
20230203064504 28 149 13.0 20.0 0.00 0.00 0.00 62 1026.7
20230203064004 29 155 11.0 15.0 0.00 0.00 0.00 62 1026.7
20230203063504 27 147 8.0 13.0 0.00 0.00 0.00 64 1026.8
20230203063004 28 127 7.0 14.0 0.00 0.00 0.00 65 1026.7
20230203062504 28 150 12.0 18.0 0.00 0.00 0.00 65 1026.6
20230203062004 28 149 11.0 16.0 0.00 0.00 0.00 65 1026.7
20230203061503 27 145 12.0 15.0 0.00 0.00 0.00 67 1026.7
20230203061004 27 150 10.0 15.0 0.00 0.00 0.00 67 1026.7
20230203060504 27 151 9.0 13.0 0.00 0.00 0.00 67 1026.7
20230203060004 27 156 7.0 12.0 0.00 0.00 0.00 66 1026.6
20230203055504 27 149 7.0 9.0 0.00 0.00 0.00 66 1026.6
20230203055003 27 149 7.0 12.0 0.00 0.00 0.00 67 1026.5
20230203054504 27 150 5.0 12.0 0.00 0.00 0.00 67 1026.5
20230203054003 27 158 7.0 12.0 0.00 0.00 0.00 67 1026.5
20230203053504 27 146 9.0 12.0 0.00 0.00 0.00 66 1026.5
20230203053004 28 140 6.0 12.0 0.00 0.00 0.00 64 1026.5
20230203052504 29 148 6.0 10.0 0.00 0.00 0.00 65 1026.5
20230203052004 28 122 7.0 10.0 0.00 0.00 0.00 65 1026.5
20230203051504 28 113 6.0 12.0 0.00 0.00 0.00 66 1026.6
20230203051004 28 149 6.0 10.0 0.00 0.00 0.00 66 1026.6
20230203050504 28 123 7.0 9.0 0.00 0.00 0.00 66 1026.7
20230203050004 28 115 6.0 10.0 0.00 0.00 0.00 66 1026.7
20230203045503 28 159 8.0 12.0 0.00 0.00 0.00 65 1026.7
20230203045004 29 152 6.0 10.0 0.00 0.00 0.00 65 1026.6
20230203044503 28 128 5.0 8.0 0.00 0.00 0.00 65 1026.6
20230203044004 29 160 6.0 12.0 0.00 0.00 0.00 64 1026.7
20230203043503 30 155 7.0 10.0 0.00 0.00 0.00 61 1026.8
20230203043004 31 144 6.0 10.0 0.00 0.00 0.00 63 1026.8
20230203042503 29 125 5.0 9.0 0.00 0.00 0.00 63 1026.7
20230203042004 31 149 5.0 9.0 0.00 0.00 0.00 60 1026.7
20230203041503 32 157 3.0 9.0 0.00 0.00 0.00 60 1026.7
20230203041004 32 115 6.0 9.0 0.00 0.00 0.00 60 1026.6
20230203040504 32 118 7.0 9.0 0.00 0.00 0.00 61 1026.6
20230203040004 31 117 7.0 12.0 0.00 0.00 0.00 63 1026.6
20230203035504 30 109 9.0 12.0 0.00 0.00 0.00 63 1026.6
20230203035004 31 154 7.0 10.0 0.00 0.00 0.00 60 1026.6
20230203034505 32 162 6.0 9.0 0.00 0.00 0.00 59 1026.7
20230203034004 32 114 8.0 10.0 0.00 0.00 0.00 60 1026.6
20230203033504 31 120 7.0 10.0 0.00 0.00 0.00 62 1026.7
20230203033004 31 119 6.0 9.0 0.00 0.00 0.00 63 1026.6
20230203032504 30 121 5.0 8.0 0.00 0.00 0.00 64 1026.6
20230203032003 30 136 5.0 8.0 0.00 0.00 0.00 63 1026.7
20230203031504 31 150 8.0 10.0 0.00 0.00 0.00 61 1026.7
20230203031004 33 159 6.0 8.0 0.00 0.00 0.00 57 1026.6
20230203030504 34 128 4.0 7.0 0.00 0.00 0.00 57 1026.6
20230203030004 34 118 6.0 9.0 0.00 0.00 0.00 58 1026.5
20230203025504 33 119 7.0 10.0 0.00 0.00 0.00 60 1026.4
20230203025004 32 115 6.0 9.0 0.00 0.00 0.00 61 1026.4
20230203024504 32 158 6.0 9.0 0.00 0.00 0.00 59 1026.5
20230203024004 34 160 5.0 10.0 0.00 0.00 0.00 57 1026.4
20230203023504 34 122 7.0 12.0 0.00 0.00 0.00 58 1026.4
20230203023004 34 114 5.0 8.0 0.00 0.00 0.00 56 1026.4
20230203022503 35 119 6.0 8.0 0.00 0.00 0.00 55 1026.3
20230203022004 36 153 5.0 9.0 0.00 0.00 0.00 53 1026.3
20230203021504 36 111 8.0 10.0 0.00 0.00 0.00 53 1026.1
20230203021004 36 107 8.0 10.0 0.00 0.00 0.00 54 1026.0
20230203020504 36 115 5.0 7.0 0.00 0.00 0.00 53 1026.0
20230203020005 37 117 6.0 10.0 0.00 0.00 0.00 51 1025.9
20230203015504 38 112 8.0 12.0 0.00 0.00 0.00 49 1025.9
20230203015004 39 110 8.0 12.0 0.00 0.00 0.00 48 1025.8
20230203014504 39 105 9.0 12.0 0.00 0.00 0.00 48 1025.7
20230203014004 39 105 8.0 12.0 0.00 0.00 0.00 48 1025.8
20230203013504 39 108 7.0 10.0 0.00 0.00 0.00 48 1025.7
20230203013004 39 105 9.0 12.0 0.00 0.00 0.00 48 1025.7
20230203012503 39 108 8.0 10.0 0.00 0.00 0.00 49 1025.5
20230203012004 39 115 8.0 10.0 0.00 0.00 0.00 48 1025.5
20230203011504 39 108 8.0 10.0 0.00 0.00 0.00 48 1025.5
20230203011003 40 107 8.0 10.0 0.00 0.00 0.00 47 1025.5
20230203010504 40 108 6.0 9.0 0.00 0.00 0.00 47 1025.4
20230203010004 41 109 7.0 9.0 0.00 0.00 0.00 46 1025.4
20230203005504 41 110 7.0 9.0 0.00 0.00 0.00 46 1025.3
20230203005004 41 111 7.0 9.0 0.00 0.00 0.00 46 1025.2
20230203004503 42 106 8.0 10.0 0.00 0.00 0.00 45 1025.2
20230203004004 42 107 8.0 10.0 0.00 0.00 0.00 44 1025.2
20230203003504 43 107 6.0 9.0 0.00 0.00 0.00 43 1025.1
20230203003004 43 106 6.0 9.0 0.00 0.00 0.00 42 1025.1
20230203002504 44 104 7.0 9.0 0.00 0.00 0.00 41 1025.0
20230203002003 44 107 7.0 9.0 0.00 0.00 0.00 41 1024.9
20230203001504 44 106 7.0 9.0 0.00 0.00 0.00 41 1024.8
20230203001004 45 103 5.0 7.0 0.00 0.00 0.00 40 1024.8
20230203000503 45 107 6.0 8.0 0.00 0.00 0.00 40 1024.8
20230203000004 46 106 3.0 6.0 0.00 0.00 0.00 40 1024.7
20230202235504 46 106 3.0 6.0 0.00 0.00 0.00 40 1024.7
20230202235003 47 111 3.0 6.0 0.00 0.00 0.00 39 1024.6
20230202234504 47 129 2.0 8.0 0.00 0.00 0.00 39 1024.5
20230202234004 47 153 4.0 7.0 0.00 0.00 0.00 38 1024.5
20230202233505 47 156 6.0 12.0 0.00 0.00 0.00 38 1024.3
20230202233003 47 149 6.0 12.0 0.00 0.00 0.00 37 1024.2
20230202232504 48 155 7.0 12.0 0.00 0.00 0.00 37 1024.2
20230202232004 48 145 8.0 12.0 0.00 0.00 0.00 37 1024.1
20230202231504 48 159 7.0 12.0 0.00 0.00 0.00 36 1024.1
20230202231003 48 152 8.0 12.0 0.00 0.00 0.00 35 1024.0
20230202230504 49 154 7.0 13.0 0.00 0.00 0.00 34 1024.1
20230202230004 49 160 8.0 12.0 0.00 0.00 0.00 34 1024.0
20230202225504 49 153 8.0 12.0 0.00 0.00 0.00 34 1024.1
20230202225003 50 147 6.0 12.0 0.00 0.00 0.00 35 1024.0
20230202224504 49 154 6.0 9.0 0.00 0.00 0.00 36 1023.9
20230202224003 49 156 5.0 10.0 0.00 0.00 0.00 34 1023.9
20230202223505 50 140 6.0 12.0 0.00 0.00 0.00 35 1023.9
20230202223004 50 153 9.0 14.0 0.00 0.00 0.00 33 1023.8
20230202222504 50 156 9.0 12.0 0.00 0.00 0.00 32 1023.8
20230202222004 50 154 7.0 10.0 0.00 0.00 0.00 31 1023.8
20230202221504 50 156 7.0 12.0 0.00 0.00 0.00 32 1023.8
20230202221005 51 142 6.0 12.0 0.00 0.00 0.00 31 1023.7
20230202220504 50 151 3.0 7.0 0.00 0.00 0.00 29 1023.7
20230202220004 51 154 5.0 8.0 0.00 0.00 0.00 28 1023.8
20230202215505 51 145 3.0 7.0 0.00 0.00 0.00 30 1023.7
20230202215003 51 115 4.0 8.0 0.00 0.00 0.00 30 1023.7
20230202214503 50 125 5.0 8.0 0.00 0.00 0.00 28 1023.7
20230202214004 50 153 5.0 8.0 0.00 0.00 0.00 29 1023.6
20230202213507 50 123 6.0 8.0 0.00 0.00 0.00 29 1023.5
20230202213004 50 147 6.0 10.0 0.00 0.00 0.00 29 1023.5
20230202212503 50 153 6.0 12.0 0.00 0.00 0.00 31 1023.5
20230202212004 50 142 7.0 12.0 0.00 0.00 0.00 32 1023.5
20230202211503 49 167 6.0 12.0 0.00 0.00 0.00 33 1023.5
20230202211004 49 154 7.0 12.0 0.00 0.00 0.00 33 1023.5
20230202210503 49 149 5.0 12.0 0.00 0.00 0.00 34 1023.5
20230202210003 49 153 7.0 10.0 0.00 0.00 0.00 34 1023.6
20230202205503 48 157 6.0 10.0 0.00 0.00 0.00 33 1023.6
20230202205004 48 159 7.0 10.0 0.00 0.00 0.00 32 1023.6
20230202204503 49 163 6.0 12.0 0.00 0.00 0.00 32 1023.6
20230202204004 49 159 7.0 10.0 0.00 0.00 0.00 33 1023.7
20230202203504 48 179 6.0 10.0 0.00 0.00 0.00 34 1023.8
20230202203004 48 153 6.0 12.0 0.00 0.00 0.00 34 1024.0
20230202202504 48 158 8.0 10.0 0.00 0.00 0.00 33 1023.9
20230202202003 47 147 7.0 12.0 0.00 0.00 0.00 34 1024.1
20230202201504 47 152 9.0 12.0 0.00 0.00 0.00 34 1024.1
20230202201004 47 148 7.0 14.0 0.00 0.00 0.00 34 1024.1
20230202200504 47 155 9.0 12.0 0.00 0.00 0.00 34 1024.1
20230202200004 47 153 7.0 13.0 0.00 0.00 0.00 34 1024.1
20230202195504 47 151 7.0 12.0 0.00 0.00 0.00 35 1024.2
20230202195004 47 162 7.0 12.0 0.00 0.00 0.00 35 1024.3
20230202194503 47 156 6.0 10.0 0.00 0.00 0.00 36 1024.3
20230202194004 47 154 7.0 12.0 0.00 0.00 0.00 35 1024.3
20230202193504 47 151 6.0 12.0 0.00 0.00 0.00 36 1024.3
20230202193004 46 158 7.0 12.0 0.00 0.00 0.00 36 1024.4
20230202192503 47 147 8.0 12.0 0.00 0.00 0.00 35 1024.5
20230202192004 47 151 6.0 12.0 0.00 0.00 0.00 35 1024.5
20230202191503 46 112 10.0 13.0 0.00 0.00 0.00 35 1024.5
20230202191004 47 145 7.0 12.0 0.00 0.00 0.00 35 1024.5
20230202190503 46 149 6.0 12.0 0.00 0.00 0.00 37 1024.6
20230202190003 45 150 7.0 16.0 0.00 0.00 0.00 36 1024.7
20230202185504 45 155 9.0 14.0 0.00 0.00 0.00 37 1024.7
20230202185003 45 162 10.0 16.0 0.00 0.00 0.00 36 1024.8
20230202184504 46 167 6.0 12.0 0.00 0.00 0.00 37 1024.7
20230202184005 46 160 6.0 10.0 0.00 0.00 0.00 37 1024.7
20230202183503 45 177 3.0 7.0 0.00 0.00 0.00 38 1024.8
20230202183004 44 184 5.0 9.0 0.00 0.00 0.00 39 1024.9
20230202182503 43 189 5.0 8.0 0.00 0.00 0.00 39 1025.0
20230202182004 43 175 5.0 8.0 0.00 0.00 0.00 39 1025.1
20230202181503 42 186 5.0 8.0 0.00 0.00 0.00 39 1025.2
20230202181004 42 169 3.0 7.0 0.00 0.00 0.00 39 1025.2
20230202180504 41 182 3.0 7.0 0.00 0.00 0.00 41 1025.3
20230202180003 41 147 5.0 7.0 0.00 0.00 0.00 41 1025.4
20230202175504 40 198 3.0 7.0 0.00 0.00 0.00 42 1025.6
20230202175004 40 159 5.0 8.0 0.00 0.00 0.00 41 1025.7
20230202174504 39 163 5.0 8.0 0.00 0.00 0.00 43 1025.8
20230202174004 39 165 5.0 9.0 0.00 0.00 0.00 43 1025.8
20230202173504 38 171 3.0 7.0 0.00 0.00 0.00 44 1025.8
20230202173003 38 185 5.0 9.0 0.00 0.00 0.00 45 1025.8
20230202172504 37 162 5.0 9.0 0.00 0.00 0.00 46 1025.8
20230202172003 36 151 5.0 9.0 0.00 0.00 0.00 47 1025.8
20230202171504 36 153 6.0 9.0 0.00 0.00 0.00 48 1025.7
20230202171004 35 165 6.0 9.0 0.00 0.00 0.00 49 1025.6
20230202170504 35 153 6.0 9.0 0.00 0.00 0.00 51 1025.6
20230202170003 33 163 5.0 8.0 0.00 0.00 0.00 53 1025.7
20230202165504 33 159 6.0 9.0 0.00 0.00 0.00 53 1025.7
20230202165003 32 156 7.0 12.0 0.00 0.00 0.00 54 1025.5
20230202164504 31 158 9.0 12.0 0.00 0.00 0.00 56 1025.3
20230202164004 30 157 9.0 12.0 0.00 0.00 0.00 56 1025.3
20230202163504 30 166 7.0 12.0 0.00 0.00 0.00 57 1025.4
20230202163003 29 153 8.0 10.0 0.00 0.00 0.00 58 1025.4
20230202162504 29 162 5.0 10.0 0.00 0.00 0.00 59 1025.5
20230202162003 28 153 7.0 10.0 0.00 0.00 0.00 60 1025.4
20230202161504 28 148 6.0 10.0 0.00 0.00 0.00 60 1025.5
20230202161004 28 156 7.0 10.0 0.00 0.00 0.00 58 1025.4
20230202160503 28 151 9.0 12.0 0.00 0.00 0.00 57 1025.3
20230202160004 28 148 7.0 12.0 0.00 0.00 0.00 57 1025.3
20230202155504 28 151 9.0 15.0 0.00 0.00 0.00 58 1025.2
20230202155003 27 149 10.0 13.0 0.00 0.00 0.00 60 1025.1
20230202154504 26 155 9.0 12.0 0.00 0.00 0.00 61 1025.2
20230202154003 25 150 10.0 14.0 0.00 0.00 0.00 61 1025.1
20230202153504 25 155 9.0 13.0 0.00 0.00 0.00 63 1024.9
20230202153003 24 151 10.0 13.0 0.00 0.00 0.00 62 1024.9
20230202152504 25 157 10.0 13.0 0.00 0.00 0.00 63 1024.9
20230202152004 24 161 9.0 14.0 0.00 0.00 0.00 65 1024.9
20230202151504 23 147 8.0 12.0 0.00 0.00 0.00 66 1024.8
20230202151003 22 134 7.0 12.0 0.00 0.00 0.00 68 1024.8
20230202150504 21 124 8.0 12.0 0.00 0.00 0.00 69 1024.7
20230202150003 20 133 7.0 12.0 0.00 0.00 0.00 71 1024.6
20230202145504 18 133 9.0 13.0 0.00 0.00 0.00 73 1024.5
20230202145003 17 136 8.0 12.0 0.00 0.00 0.00 73 1024.6
20230202144504 17 133 9.0 12.0 0.00 0.00 0.00 72 1024.6
20230202144004 17 147 8.0 12.0 0.00 0.00 0.00 71 1024.5
20230202143504 17 152 9.0 13.0 0.00 0.00 0.00 72 1024.4
20230202143004 17 139 9.0 13.0 0.00 0.00 0.00 71 1024.2
20230202142504 17 111 8.0 12.0 0.00 0.00 0.00 70 1024.2
20230202142004 17 116 9.0 13.0 0.00 0.00 0.00 69 1024.1
20230202141504 18 126 9.0 15.0 0.00 0.00 0.00 68 1024.1
20230202141003 19 144 9.0 14.0 0.00 0.00 0.00 70 1024.1
20230202140504 19 147 9.0 15.0 0.00 0.00 0.00 71 1024.1
20230202140003 17 130 10.0 14.0 0.00 0.00 0.00 70 1024.0
20230202135503 17 126 7.0 13.0 0.00 0.00 0.00 70 1024.0
20230202135004 18 144 7.0 13.0 0.00 0.00 0.00 70 1024.0
20230202134503 18 135 6.0 12.0 0.00 0.00 0.00 69 1023.9
20230202134004 18 152 10.0 14.0 0.00 0.00 0.00 68 1023.8
20230202133504 19 148 8.0 12.0 0.00 0.00 0.00 68 1023.8
20230202133004 19 145 7.0 12.0 0.00 0.00 0.00 67 1023.7
20230202132504 20 148 10.0 13.0 0.00 0.00 0.00 67 1023.7
20230202132004 20 145 6.0 14.0 0.00 0.00 0.00 67 1023.5
20230202131504 20 136 7.0 12.0 0.00 0.00 0.00 66 1023.4
20230202131004 21 147 9.0 12.0 0.00 0.00 0.00 65 1023.3
20230202130504 21 142 8.0 12.0 0.00 0.00 0.00 65 1023.4
20230202130004 21 141 7.0 14.0 0.00 0.00 0.00 67 1023.3
20230202125503 20 148 10.0 13.0 0.00 0.00 0.00 67 1023.2
20230202125004 21 129 7.0 13.0 0.00 0.00 0.00 65 1023.2
20230202124503 21 156 10.0 13.0 0.00 0.00 0.00 67 1023.0
20230202124004 21 124 9.0 12.0 0.00 0.00 0.00 67 1023.0
20230202123504 21 118 7.0 12.0 0.00 0.00 0.00 67 1023.0
20230202123004 22 128 8.0 12.0 0.00 0.00 0.00 64 1022.9
20230202122504 22 123 7.0 12.0 0.00 0.00 0.00 67 1022.9
20230202122004 21 134 7.0 12.0 0.00 0.00 0.00 70 1022.8
20230202121503 19 124 8.0 12.0 0.00 0.00 0.00 69 1022.8
20230202121004 20 118 8.0 12.0 0.00 0.00 0.00 67 1022.7
20230202120503 20 147 7.0 13.0 0.00 0.00 0.00 68 1022.6
20230202120004 20 121 9.0 13.0 0.00 0.00 0.00 69 1022.5
20230202115503 20 117 9.0 12.0 0.00 0.00 0.00 69 1022.5
20230202115004 20 122 9.0 12.0 0.00 0.00 0.00 68 1022.5
20230202114504 20 124 7.0 13.0 0.00 0.00 0.00 68 1022.4
20230202114004 20 124 9.0 12.0 0.00 0.00 0.00 70 1022.4
20230202113504 19 133 7.0 12.0 0.00 0.00 0.00 69 1022.3
20230202113004 21 132 8.0 12.0 0.00 0.00 0.00 68 1022.3
20230202112504 20 123 9.0 12.0 0.00 0.00 0.00 70 1022.3
20230202112003 20 133 7.0 12.0 0.00 0.00 0.00 71 1022.3
20230202111504 19 131 8.0 12.0 0.00 0.00 0.00 72 1022.2
20230202111004 19 121 8.0 13.0 0.00 0.00 0.00 71 1022.1
20230202110503 19 123 9.0 13.0 0.00 0.00 0.00 70 1022.1
20230202110004 19 134 7.0 12.0 0.00 0.00 0.00 71 1022.0
20230202105504 19 118 9.0 12.0 0.00 0.00 0.00 72 1021.9
20230202105004 18 113 9.0 13.0 0.00 0.00 0.00 71 1021.8
20230202104504 18 114 7.0 10.0 0.00 0.00 0.00 70 1021.8
20230202104003 19 152 7.0 12.0 0.00 0.00 0.00 69 1021.8
20230202103504 19 123 7.0 12.0 0.00 0.00 0.00 68 1021.8
20230202103003 21 141 7.0 14.0 0.00 0.00 0.00 65 1021.8
20230202102504 22 151 9.0 15.0 0.00 0.00 0.00 67 1021.8
20230202102004 21 126 9.0 12.0 0.00 0.00 0.00 64 1021.7
20230202101504 23 121 8.0 12.0 0.00 0.00 0.00 65 1021.7
20230202101004 23 134 9.0 13.0 0.00 0.00 0.00 65 1021.7
20230202100504 23 147 9.0 14.0 0.00 0.00 0.00 66 1021.6
20230202100003 23 148 9.0 13.0 0.00 0.00 0.00 66 1021.6
20230202095504 22 149 9.0 13.0 0.00 0.00 0.00 67 1021.6
20230202095004 22 123 6.0 12.0 0.00 0.00 0.00 67 1021.6
20230202094504 22 137 7.0 12.0 0.00 0.00 0.00 68 1021.6
20230202094005 22 118 7.0 10.0 0.00 0.00 0.00 68 1021.6
20230202093504 21 120 7.0 10.0 0.00 0.00 0.00 69 1021.6
20230202093004 21 126 6.0 10.0 0.00 0.00 0.00 70 1021.5
20230202092503 21 145 6.0 12.0 0.00 0.00 0.00 69 1021.4
20230202092004 21 139 6.0 9.0 0.00 0.00 0.00 69 1021.4
20230202091504 21 115 7.0 10.0 0.00 0.00 0.00 70 1021.4
20230202091004 20 118 7.0 12.0 0.00 0.00 0.00 70 1021.4
20230202090504 20 117 7.0 10.0 0.00 0.00 0.00 69 1021.3
20230202090004 20 151 6.0 8.0 0.00 0.00 0.00 69 1021.1
20230202085504 20 110 6.0 12.0 0.00 0.00 0.00 68 1021.1
20230202085004 21 149 9.0 12.0 0.00 0.00 0.00 66 1021.1
20230202084504 22 150 7.0 12.0 0.00 0.00 0.00 64 1021.1
20230202084004 24 116 5.0 9.0 0.00 0.00 0.00 62 1021.1
20230202083504 25 121 5.0 9.0 0.00 0.00 0.00 64 1021.0
20230202083004 24 120 5.0 9.0 0.00 0.00 0.00 67 1021.0
20230202082504 23 118 6.0 9.0 0.00 0.00 0.00 66 1020.9
20230202082004 23 147 5.0 9.0 0.00 0.00 0.00 66 1021.0
20230202081504 23 126 6.0 9.0 0.00 0.00 0.00 66 1021.0
20230202081003 23 116 6.0 10.0 0.00 0.00 0.00 66 1020.9
20230202080504 23 130 6.0 12.0 0.00 0.00 0.00 66 1020.9
20230202080004 23 154 7.0 12.0 0.00 0.00 0.00 67 1020.7
20230202075503 23 126 7.0 12.0 0.00 0.00 0.00 66 1020.8